Wetbulb
46.71 42.95 37.94 40.37 43.17 39.88 39.35 35.80 35.67 37.40 42.98 39.56 38.47 40.34 42.92 45.78 44.83 45.22 45.91 44.86 45.70 47.18 49.99 51.05 52.90 57.99 59.86 60.46 58.82 56.97 57.00 58.51 57.99 57.44 56.81 57.52 58.03 57.97 57.01 57.80 59.07 59.51 60.35 60.29
43.39 38.54 41.53 42.28 43.31 41.45 37.70 36.36 34.84 38.10 41.41 39.59 38.46 38.45 41.89 41.78 44.15 44.13 45.73 45.07 46.11 46.65 48.05 49.94 50.40 53.03 57.54 59.90 60.46 58.28 57.33 58.00 58.20 58.31 58.43 58.27 58.28 58.53 58.70 57.99 57.63 58.47 59.30 59.69
38.49 39.34 43.59 41.67 40.96 39.96 39.11 36.39 35.47 35.65 38.95 39.50 36.97 37.45 39.28 41.42 42.72 44.77 44.76 45.78 46.09 46.87 47.84 48.64 49.54 49.89 54.28 57.78 59.82 60.57 58.39 58.27 58.57 59.20 58.70 57.30 56.78 55.62 56.30 57.36 57.61 57.61 58.02 58.46
40.12 42.46 41.57 40.51 39.39 40.99 35.45 41.84 39.12 37.65 35.75 30.44 37.60 29.72 35.40 37.49 40.54 42.49 43.56 43.61 44.42 45.42 46.89 48.36 50.44 50.27 50.98 55.83 59.21 61.09 60.97 59.01 58.87 59.31 58.54 57.79 57.29 56.09 57.37 57.94 58.43 58.37 58.06 57.89
37.20 38.93 38.94 38.63 39.34 42.42 36.71 41.62 40.33 37.52 34.73 32.32 33.81 29.73 32.73 37.64 37.20 39.68 42.05 43.35 44.19 45.71 47.02 48.48 49.08 50.46 51.51 54.86 57.63 59.81 61.28 60.30 59.20 59.03 59.09 58.18 57.49 58.11 58.43 57.94 57.38 57.64 58.11 57.80
39.00 41.72 41.63 40.68 41.89 42.28 41.81 38.01 37.24 36.14 36.23 29.65 33.49 31.11 32.05 34.90 37.82 39.34 41.45 42.62 44.37 45.66 46.30 47.29 47.40 48.67 49.32 50.67 56.07 58.51 59.83 60.63 60.12 58.55 58.71 58.29 57.80 57.72 57.19 56.62 56.74 57.42 57.95 57.64
36.91 36.93 39.62 42.45 37.97 40.77 39.21 34.98 20.49 27.93 27.70 25.68 32.03 30.42 33.88 37.57 39.86 41.06 41.77 42.65 43.21 44.36 43.99 44.34 45.90 46.75 48.43 47.84 50.19 56.43 58.37 59.39 60.61 59.71 58.33 58.50 58.13 58.11 57.73 57.35 56.82 56.89 57.11 57.54
30.42 28.67 36.69 40.53 39.51 36.75 37.63 36.27 27.52 15.86 19.40 24.01 29.94 28.52 33.61 39.79 43.19 44.23 44.36 45.08 43.73 43.28 44.10 44.49 45.93 47.10 47.25 48.79 48.55 51.83 56.00 58.12 59.62 60.19 59.20 58.80 59.03 58.74 58.69 58.72 58.37 57.75 57.76 58.04
30.90 30.29 36.63 38.75 39.90 40.79 35.68 34.25 36.70 26.27 23.56 20.54 26.45 31.02 37.56 40.25 40.28 40.52 40.71 41.10 42.76 42.33 42.71 42.02 42.82 45.88 46.00 46.83 47.71 49.01 52.12 56.14 57.88 59.34 60.38 59.81 59.51 59.29 59.28 59.46 59.60 59.00 58.76 58.89
33.38 27.40 34.26 38.27 39.33 40.11 37.89 39.37 31.95 30.58 20.63 18.99 24.69 26.35 28.86 34.13 36.80 39.18 38.95 39.84 39.73 39.92 39.98 42.08 43.57 43.86 43.49 42.77 43.40 44.31 46.36 49.20 54.68 57.35 58.92 60.44 60.77 60.41 60.35 60.56 59.86 59.69 59.74 59.37
35.66 30.83 28.85 35.11 33.94 34.37 35.17 33.10 32.96 32.12 28.46 21.68 18.90 24.46 34.36 36.96 37.40 38.16 38.59 39.75 39.38 40.33 41.02 40.96 41.02 41.55 42.03 42.94 43.46 43.06 43.65 44.09 45.80 49.70 54.52 58.10 59.69 60.80 61.20 60.80 60.71 60.46 60.25 59.66
37.51 32.79 25.08 30.76 37.73 40.13 38.77 35.64 35.27 28.45 24.26 25.67 25.44 25.60 37.82 38.80 39.06 39.40 39.54 39.40 41.39 41.06 40.41 40.20 40.32 41.09 41.78 42.50 43.25 42.64 43.07 43.03 44.20 44.69 47.10 51.04 57.48 58.98 59.59 60.40 61.14 61.21 60.39 60.47
38.21 32.76 24.68 28.03 32.07 35.95 35.01 36.30 36.87 34.49 30.96 27.21 24.92 27.96 38.41 39.22 38.70 40.13 40.90 39.92 41.94 42.27 42.86 42.48 41.12 40.93 41.27 42.73 43.80 43.89 43.27 43.64 43.98 43.55 44.04 45.00 47.56 53.74 57.79 58.93 60.04 60.55 60.45 60.17
41.01 33.77 30.55 25.77 28.91 33.56 31.35 34.18 36.07 34.88 29.40 29.09 28.99 31.05 34.03 35.65 37.06 38.40 39.82 39.74 39.96 40.57 41.03 42.05 41.64 40.19 39.62 40.76 41.34 42.10 42.54 43.84 43.56 43.87 43.65 43.56 44.96 46.83 50.20 55.76 58.21 59.40 59.90 59.90
38.63 31.52 32.54 31.16 31.75 34.13 33.76 33.55 34.55 33.23 34.11 29.74 31.94 31.66 35.63 36.62 37.14 39.12 37.99 38.37 38.66 38.61 38.59 38.45 38.80 39.18 39.92 41.11 39.79 40.56 40.98 41.22 41.51 41.69 42.55 43.38 44.58 45.60 48.03 50.06 53.37 56.65 58.27 59.36
38.83 31.38 32.88 29.78 31.76 32.24 30.53 33.70 34.52 35.29 35.42 34.96 33.19 31.60 37.64 37.86 37.56 38.20 38.18 37.82 37.49 37.92 38.60 38.76 39.26 39.72 39.79 40.16 40.24 39.88 39.07 39.54 39.60 39.24 40.63 42.79 44.04 44.69 45.16 47.16 49.63 52.20 54.90 56.57
35.20 32.55 30.12 27.36 31.66 31.36 25.95 30.32 33.14 34.04 36.17 35.69 31.45 36.36 37.63 35.83 37.90 37.98 37.22 37.27 37.38 37.39 37.43 37.44 37.71 38.46 39.31 38.93 39.63 38.88 37.95 38.70 38.83 38.25 38.78 39.55 40.77 41.64 42.98 44.44 46.14 47.05 49.40 52.71
33.74 33.24 31.62 25.39 29.87 22.15 29.68 34.89 35.44 34.86 35.76 37.69 37.47 35.53 38.20 37.20 36.90 37.46 37.89 37.23 35.98 35.66 35.56 35.39 35.69 36.30 36.49 37.50 37.61 37.57 37.28 37.24 37.05 36.34 36.21 36.55 37.35 37.94 39.31 40.26 42.73 45.20 47.78 49.19
38.41 33.55 27.45 24.73 25.80 26.51 27.34 29.90 31.03 30.80 30.10 34.20 36.08 35.93 36.09 36.97 35.69 33.87 35.16 34.90 33.71 33.37 33.14 33.15 33.78 33.51 33.96 34.28 34.02 34.42 34.52 34.94 34.77 34.80 34.03 33.95 34.74 35.10 36.32 37.53 39.36 42.53 43.96 43.02
37.29 36.82 29.80 22.95 22.43 20.29 27.81 31.11 33.46 34.16 23.60 30.73 33.59 34.36 35.53 35.26 31.48 30.44 32.22 31.16 30.84 30.15 30.11 29.65 29.63 31.05 30.55 30.58 31.84 31.82 31.07 31.67 32.38 32.57 32.44 33.33 33.83 34.29 35.19 36.93 38.54 40.76 40.66 41.63
31.19 30.79 27.23 24.27 17.53 22.67 25.93 27.52 33.33 22.94 24.47 25.65 25.43 27.03 29.69 29.09 28.28 28.47 28.72 27.57 27.29 26.08 25.67 26.17 26.76 25.97 26.18 27.73 29.38 27.82 28.23 28.97 30.93 31.45 31.98 32.44 34.03 34.74 35.04 35.69 37.35 37.95 38.41 38.44
28.62 26.10 25.80 23.61 20.32 19.16 19.58 26.55 27.06 25.82 22.48 20.83 19.83 19.73 22.43 23.16 23.00 23.48 23.26 23.19 22.56 21.56 21.77 22.74 21.98 21.79 23.40 25.72 24.94 23.41 24.09 26.54 28.71 30.22 31.36 32.58 34.04 35.11 35.33 35.12 35.74 36.52 36.55 37.13
26.37 25.87 24.48 22.87 19.74 17.92 18.50 17.75 19.63 20.33 16.88 16.46 16.80 17.10 17.22 18.01 18.48 20.33 19.20 19.81 19.96 19.19 19.49 20.44 18.29 19.01 20.87 21.99 21.21 19.78 21.55 23.21 27.00 29.08 30.29 31.64 33.42 34.59 35.02 34.47 34.84 35.75 35.31 36.02
22.85 17.94 22.83 21.31 16.03 14.78 15.38 16.36 16.34 16.01 14.60 14.82 15.22 14.84 14.85 14.27 17.68 17.30 17.33 17.16 16.52 16.41 16.66 16.08 15.42 15.78 16.04 16.66 17.38 17.65 19.23 22.84 25.24 26.40 28.82 30.28 31.27 33.66 34.64 35.03 35.01 35.07 35.73 35.82
9.56 13.83 16.49 14.24 14.98 15.29 13.23 12.47 13.71 14.30 14.12 13.01 13.86 13.31 13.35 14.56 14.10 13.53 13.04 13.33 12.91 13.06 13.29 12.99 12.76 12.96 11.94 12.67 12.86 14.01 17.01 20.09 19.82 22.60 27.53 28.73 30.48 31.57 33.66 34.60 34.83 35.22 36.06 36.69
6.90 4.72 9.20 9.87 8.71 11.23 11.20 11.18 11.68 10.75 9.54 10.24 9.66 9.85 12.25 12.19 10.57 10.05 9.43 9.91 9.73 9.07 9.41 9.45 9.42 8.41 8.00 8.40 9.29 11.35 14.83 16.30 15.88 18.91 24.68 26.26 28.47 29.61 31.95 33.91 34.41 36.81 36.78 37.11
MSLP
1019.15 1019.63 1018.15 1017.38 1018.98 1019.81 1020.09 1020.24 1019.96 1019.47 1018.93 1019.06 1018.83 1017.81 1017.54 1016.95 1016.73 1016.72 1016.63 1016.57 1016.38 1016.21 1015.48 1015.27 1015.02 1014.95 1015.16 1015.45 1015.68 1015.69 1016.15 1016.11 1016.68 1017.12 1017.71 1018.38 1018.36 1018.69 1018.67 1018.68 1018.76 1019.06 1019.20 1019.43
1019.30 1017.56 1017.10 1018.92 1019.60 1019.86 1019.98 1019.93 1019.81 1019.85 1019.11 1019.39 1018.83 1017.45 1017.00 1016.76 1016.08 1015.88 1016.00 1016.04 1015.80 1015.59 1015.23 1014.62 1014.46 1014.46 1014.58 1014.30 1014.44 1014.77 1015.02 1015.45 1016.00 1016.15 1016.14 1016.73 1017.64 1017.88 1017.89 1018.16 1018.28 1018.31 1018.44 1018.56
1017.24 1016.58 1018.12 1018.61 1019.16 1019.58 1019.35 1019.18 1019.74 1019.86 1019.52 1019.27 1019.03 1017.44 1016.59 1015.82 1015.59 1015.35 1015.28 1015.31 1015.32 1015.17 1014.94 1014.32 1013.93 1013.64 1013.56 1013.80 1013.66 1013.70 1013.84 1014.23 1014.66 1015.21 1015.98 1016.35 1016.73 1017.28 1017.70 1017.32 1017.34 1017.35 1017.46 1017.76
1017.54 1016.62 1017.06 1018.03 1018.45 1018.58 1018.70 1018.72 1019.64 1020.00 1020.19 1019.68 1019.23 1017.06 1016.11 1015.81 1015.36 1015.08 1014.92 1014.92 1014.81 1014.68 1014.23 1013.79 1013.23 1013.04 1012.95 1012.77 1012.72 1012.62 1012.72 1013.10 1013.54 1014.26 1014.98 1015.30 1015.04 1015.28 1015.40 1016.22 1016.49 1016.41 1016.78 1016.81
1015.44 1016.14 1016.96 1017.53 1016.33 1018.08 1017.59 1018.26 1019.31 1019.90 1020.13 1020.22 1019.36 1019.00 1015.50 1015.48 1015.05 1014.88 1014.62 1014.53 1014.23 1013.91 1013.60 1013.16 1012.70 1012.36 1011.85 1011.82 1011.72 1011.54 1011.74 1012.27 1012.68 1013.18 1013.48 1014.09 1014.47 1014.16 1013.78 1014.68 1015.32 1015.59 1015.64 1015.93
1015.46 1015.79 1016.33 1015.82 1016.79 1017.28 1017.68 1018.47 1019.33 1019.94 1020.39 1020.42 1017.84 1019.40 1014.74 1014.88 1014.55 1014.14 1013.96 1013.91 1013.80 1013.36 1012.77 1012.45 1012.34 1012.11 1011.79 1011.23 1011.13 1011.06 1011.04 1011.12 1011.57 1012.18 1012.47 1012.69 1013.09 1013.35 1013.54 1013.64 1013.88 1014.19 1014.73 1015.08
1015.48 1015.88 1015.72 1015.68 1016.41 1016.92 1017.79 1018.39 1019.75 1020.47 1020.14 1018.56 1018.59 1018.97 1014.59 1013.62 1013.54 1013.44 1013.52 1013.29 1012.87 1012.64 1012.59 1012.50 1012.24 1011.73 1011.38 1011.12 1010.81 1010.65 1010.58 1010.62 1010.61 1010.90 1011.42 1011.76 1011.75 1012.01 1012.18 1012.55 1012.82 1013.44 1013.46 1013.66
1014.39 1015.26 1014.97 1014.39 1014.72 1015.72 1016.79 1017.62 1018.10 1019.18 1019.74 1019.11 1018.81 1017.18 1013.86 1013.29 1012.91 1012.63 1012.52 1012.17 1012.50 1012.54 1012.19 1011.94 1011.79 1011.37 1011.17 1010.84 1010.69 1010.56 1010.44 1010.50 1010.61 1010.78 1010.66 1010.86 1011.08 1011.24 1011.15 1011.12 1011.45 1011.48 1012.13 1012.44
1013.68 1013.69 1013.27 1013.93 1014.43 1015.08 1016.30 1016.68 1016.88 1018.78 1019.92 1019.62 1018.22 1016.38 1014.39 1013.11 1012.68 1012.53 1012.24 1012.29 1012.02 1012.07 1012.11 1012.16 1011.89 1011.86 1011.47 1011.30 1011.18 1010.92 1010.72 1010.44 1010.28 1010.24 1010.28 1010.32 1010.53 1010.57 1010.30 1010.28 1010.35 1010.46 1010.63 1011.04
1012.73 1013.44 1013.02 1013.70 1014.08 1014.02 1014.34 1015.66 1017.19 1018.09 1019.08 1019.17 1017.85 1016.46 1014.48 1013.27 1012.87 1012.55 1012.39 1012.45 1012.44 1012.40 1012.45 1012.22 1012.02 1012.04 1011.90 1011.75 1011.51 1011.11 1010.95 1010.84 1010.57 1010.32 1009.96 1009.72 1009.50 1009.48 1009.49 1009.52 1009.33 1009.43 1009.60 1009.95
1012.17 1012.03 1013.00 1013.09 1012.59 1012.75 1014.27 1014.86 1015.67 1016.53 1017.72 1017.68 1017.33 1015.15 1013.48 1012.91 1012.76 1013.11 1012.96 1012.95 1012.99 1012.85 1013.04 1012.97 1013.08 1013.03 1012.89 1012.18 1011.67 1011.37 1010.93 1010.69 1010.50 1010.41 1010.14 1009.72 1009.14 1008.73 1008.59 1008.31 1008.11 1008.37 1008.73 1009.00
1011.35 1011.80 1012.61 1011.81 1011.76 1012.31 1012.56 1012.91 1014.15 1015.21 1016.37 1016.46 1016.08 1013.95 1012.49 1012.32 1012.59 1013.05 1013.18 1013.33 1013.51 1013.57 1013.60 1013.46 1013.49 1013.42 1013.28 1013.05 1012.57 1012.22 1011.70 1011.22 1010.64 1010.42 1010.18 1009.67 1009.20 1008.68 1008.27 1007.90 1007.54 1007.57 1007.62 1007.95
1010.95 1011.52 1012.48 1012.72 1012.76 1012.41 1012.12 1012.52 1013.25 1014.13 1014.57 1015.32 1015.32 1013.36 1012.37 1012.57 1013.04 1013.52 1013.37 1013.84 1014.10 1014.10 1014.24 1014.13 1014.00 1014.09 1013.97 1013.71 1013.25 1012.69 1012.24 1011.79 1011.08 1010.41 1009.92 1009.55 1009.05 1008.65 1007.98 1007.46 1007.15 1006.96 1006.75 1006.92
1009.81 1010.64 1010.80 1010.13 1009.77 1010.30 1011.55 1011.59 1012.08 1012.85 1013.83 1013.03 1013.60 1012.38 1012.47 1012.49 1013.15 1013.70 1013.91 1014.01 1013.98 1014.02 1014.27 1014.56 1014.50 1014.52 1014.59 1014.36 1014.03 1013.63 1012.81 1012.33 1011.60 1010.71 1009.97 1009.32 1008.70 1008.46 1007.87 1007.39 1006.84 1006.50 1006.18 1005.97
1009.15 1009.79 1010.86 1010.44 1010.16 1010.08 1009.97 1010.34 1011.21 1012.08 1011.36 1012.38 1011.62 1012.34 1012.21 1012.05 1012.82 1013.27 1013.64 1014.04 1014.43 1014.64 1014.59 1014.62 1014.58 1014.68 1014.66 1014.39 1014.03 1014.11 1012.71 1012.89 1012.13 1011.05 1010.30 1009.47 1008.51 1007.87 1007.56 1007.27 1006.73 1006.16 1005.62 1005.13
1008.98 1009.32 1010.41 1011.10 1010.58 1010.28 1010.23 1010.16 1010.67 1010.89 1010.98 1011.83 1011.68 1011.51 1011.48 1012.06 1012.45 1013.17 1013.77 1014.28 1014.62 1014.80 1014.66 1014.60 1014.58 1014.63 1014.71 1014.55 1014.11 1013.91 1013.20 1013.32 1013.14 1011.14 1011.03 1010.33 1008.92 1008.14 1007.20 1006.73 1006.44 1005.86 1005.33 1005.02
1008.59 1009.41 1009.99 1010.09 1010.82 1010.73 1010.52 1009.14 1009.75 1010.20 1010.51 1010.88 1011.42 1009.67 1011.34 1012.13 1012.68 1013.43 1014.18 1014.79 1015.23 1015.35 1015.24 1015.21 1015.27 1015.26 1015.21 1014.97 1014.66 1014.59 1014.28 1013.35 1013.75 1011.51 1011.57 1011.10 1009.79 1008.66 1007.58 1006.79 1006.42 1006.04 1005.31 1005.20
1007.00 1008.52 1009.68 1010.44 1011.12 1010.08 1009.24 1008.59 1008.99 1009.82 1010.19 1010.66 1010.62 1010.53 1011.25 1012.01 1013.36 1014.29 1015.06 1015.59 1015.99 1016.20 1016.37 1016.34 1016.24 1016.14 1016.17 1015.99 1015.61 1015.44 1015.10 1014.70 1013.74 1012.55 1012.16 1011.54 1010.38 1009.20 1007.86 1006.92 1006.45 1005.80 1005.20 1004.60
1006.96 1008.23 1009.41 1010.38 1010.76 1010.80 1009.93 1009.44 1009.58 1009.98 1011.05 1011.29 1011.23 1011.58 1012.23 1013.22 1014.16 1015.85 1016.34 1016.66 1017.02 1017.36 1017.43 1017.47 1017.47 1017.19 1016.88 1016.58 1016.22 1015.67 1015.10 1014.52 1013.81 1012.93 1012.36 1011.53 1010.78 1009.66 1007.93 1006.96 1006.41 1005.80 1005.12 1004.42
1007.28 1007.64 1008.87 1010.53 1011.20 1011.27 1010.48 1009.80 1009.60 1010.48 1012.74 1013.17 1012.89 1012.88 1013.52 1014.15 1015.62 1017.18 1017.65 1018.07 1018.34 1018.36 1018.31 1018.16 1017.96 1017.58 1017.34 1017.04 1016.60 1015.97 1015.31 1014.65 1014.01 1013.28 1012.68 1011.96 1011.01 1009.79 1008.28 1007.04 1006.42 1005.65 1004.93 1004.14
1007.56 1008.41 1009.35 1010.56 1012.33 1012.98 1012.96 1012.25 1011.52 1013.34 1015.76 1015.72 1015.67 1015.45 1015.31 1016.11 1017.65 1018.50 1018.90 1019.30 1019.57 1019.38 1018.92 1018.80 1018.49 1018.29 1018.02 1017.49 1016.87 1016.36 1015.78 1015.15 1014.47 1013.67 1012.63 1011.48 1010.31 1009.28 1008.12 1007.23 1006.49 1005.48 1004.81 1004.16
1008.05 1009.29 1011.00 1012.58 1014.67 1015.99 1015.66 1014.52 1015.05 1016.68 1017.83 1018.50 1018.60 1018.67 1018.46 1018.79 1019.12 1019.66 1020.02 1019.96 1019.80 1019.85 1019.75 1019.60 1019.36 1019.12 1018.66 1018.12 1017.57 1016.93 1016.22 1015.54 1014.63 1013.63 1012.51 1011.34 1010.11 1008.96 1008.24 1007.38 1006.17 1005.28 1004.78 1004.11
1010.59 1011.54 1012.41 1014.30 1016.75 1018.60 1018.79 1019.25 1019.82 1019.49 1020.65 1021.01 1021.26 1021.39 1021.10 1020.91 1020.91 1021.07 1021.19 1021.11 1021.14 1021.21 1021.00 1020.77 1020.57 1019.89 1019.56 1019.17 1018.77 1017.76 1016.83 1015.94 1014.52 1013.26 1012.07 1010.87 1009.73 1008.73 1007.87 1006.96 1006.05 1005.22 1004.65 1004.28
1013.16 1013.98 1014.58 1016.07 1019.61 1020.61 1021.28 1022.00 1022.41 1022.64 1022.62 1023.11 1023.36 1023.21 1022.92 1022.72 1022.66 1022.70 1022.59 1022.52 1022.44 1022.29 1021.95 1021.76 1021.25 1020.60 1020.03 1019.83 1019.41 1018.86 1017.64 1016.36 1014.95 1013.49 1012.15 1011.03 1009.91 1008.56 1007.56 1006.77 1005.94 1005.18 1004.81 1004.24
1018.79 1018.16 1018.62 1020.73 1021.71 1022.30 1023.23 1023.75 1023.91 1024.08 1024.39 1024.60 1024.69 1024.59 1024.21 1024.20 1024.35 1024.34 1023.97 1023.81 1023.81 1023.54 1023.16 1022.87 1022.24 1021.52 1020.83 1020.24 1019.63 1019.08 1018.17 1016.94 1015.57 1014.21 1012.55 1011.21 1010.12 1008.96 1007.59 1006.52 1005.86 1005.03 1004.30 1003.97
1022.88 1023.12 1022.60 1023.42 1024.50 1024.56 1025.11 1025.76 1025.77 1025.93 1026.06 1026.04 1025.93 1025.73 1025.77 1025.88 1025.79 1025.47 1025.32 1025.26 1024.98 1024.51 1024.05 1023.50 1023.08 1022.47 1021.65 1020.93 1020.00 1019.13 1018.27 1017.48 1016.34 1014.60 1012.86 1011.65 1010.41 1009.07 1007.77 1006.34 1004.80 1004.27 1003.55 1003.08
Wind_Speed
8 11 24 28 18 8 10 5 10 4 6 2 8 15 13 16 13 15 12 9 9 9 9 7 8 12 11 9 11 15 15 17 11 10 9 8 10 7 6 8 10 10 10 11
8 27 18 9 10 13 7 14 9 4 4 7 9 17 13 9 15 10 12 9 9 6 8 9 8 8 11 16 17 15 17 16 14 11 11 10 8 8 8 6 7 11 13 12
16 11 10 12 13 14 18 18 8 4 2 4 2 17 10 6 6 6 5 7 6 9 10 11 11 10 11 14 16 17 18 18 17 17 8 4 3 3 4 8 10 12 14 13
15 18 20 13 16 18 20 15 7 7 5 8 6 13 6 4 9 7 7 7 9 9 9 12 14 12 9 13 15 18 17 18 17 16 12 15 15 14 14 11 10 11 14 14
16 12 15 18 23 18 11 10 14 7 6 2 10 3 5 4 8 8 8 9 10 10 11 15 13 14 13 12 14 16 17 17 17 17 18 14 15 13 11 10 12 14 13 15
18 4 17 13 12 17 6 6 4 4 6 12 19 6 17 12 9 8 7 9 9 12 13 13 9 9 9 9 11 13 16 18 19 18 21 20 20 17 12 13 12 11 10 10
16 15 3 9 8 8 8 7 1 7 10 17 10 8 25 4 9 12 12 12 12 11 8 8 9 9 9 9 9 10 13 17 18 19 19 21 21 20 19 16 12 12 11 11
17 13 22 8 14 9 19 18 7 10 7 6 5 12 15 7 13 15 14 16 7 9 8 9 9 7 8 7 6 7 8 11 12 15 18 18 20 14 14 16 13 13 13 13
16 18 7 5 5 18 9 15 11 6 2 4 5 8 8 9 10 7 9 6 8 5 4 1 1 5 4 6 6 6 6 7 8 11 13 15 16 18 16 17 16 13 14 12
6 6 6 23 5 12 13 10 7 8 7 6 4 5 7 2 2 6 3 7 5 3 2 4 7 9 8 5 5 6 5 6 7 7 9 13 15 17 18 16 17 17 15 15
6 5 4 16 18 16 9 8 5 4 6 6 4 8 9 12 8 7 5 4 4 5 6 8 8 8 9 10 10 8 6 6 6 6 8 11 15 16 16 17 17 16 14 14
13 3 4 19 22 20 18 21 17 8 6 3 3 8 3 7 10 7 6 4 4 6 7 7 7 7 8 9 11 10 10 9 8 5 6 8 11 14 15 16 16 15 16 15
18 6 5 4 2 0 23 14 16 7 4 9 9 11 6 5 8 4 6 2 1 3 5 5 8 8 8 11 12 11 10 12 12 8 8 8 8 10 13 15 16 15 14 15
22 5 13 15 17 13 20 27 20 20 11 18 13 18 8 5 7 2 5 4 5 5 5 3 3 4 5 6 9 12 12 12 12 12 11 9 10 10 11 13 12 13 13 14
18 16 10 7 5 18 22 26 24 20 26 16 20 15 15 8 4 7 8 6 6 5 5 4 4 4 5 8 8 11 12 15 14 15 14 13 11 9 9 10 12 13 12 14
17 6 16 12 1 8 13 18 20 23 24 18 10 13 6 7 7 6 6 6 5 5 6 7 8 8 10 11 12 11 13 14 14 12 16 19 14 12 9 10 12 11 13 13
18 13 10 18 8 5 1 21 19 17 16 19 15 28 8 5 7 7 7 6 6 6 6 6 7 9 11 12 12 13 14 15 16 14 15 15 16 15 12 11 11 10 9 10
13 19 7 3 10 14 4 14 16 20 15 16 17 4 13 7 6 9 6 6 6 6 6 7 8 9 9 9 10 12 9 12 12 12 13 15 15 15 14 10 11 12 10 10
14 8 5 7 9 1 2 5 10 13 10 4 12 6 6 15 10 7 7 8 8 7 6 6 7 8 8 9 12 11 12 12 13 13 16 16 16 17 15 14 12 11 12 8
13 12 6 4 5 5 5 2 3 7 4 8 5 8 10 9 7 4 5 8 7 8 8 10 11 9 10 12 12 12 12 13 13 15 17 17 16 16 16 14 14 13 11 12
9 6 8 4 3 5 6 10 4 8 3 8 11 11 8 6 5 5 7 7 7 8 11 12 10 10 12 12 13 13 13 13 15 16 16 17 16 16 15 14 13 11 12 11
6 6 3 4 5 7 16 5 3 6 9 11 12 14 12 9 9 10 9 11 13 14 14 13 12 12 12 12 13 15 15 16 16 17 19 18 18 13 12 14 12 11 11 11
4 1 5 4 5 7 14 15 12 15 11 8 11 12 11 10 10 11 10 12 12 13 13 12 13 14 11 11 12 15 17 18 19 20 19 19 18 15 12 12 11 10 8 9
4 11 5 7 7 10 11 12 13 13 13 11 11 11 11 10 11 11 11 12 13 13 13 14 14 14 14 13 14 13 17 18 18 20 19 18 17 17 14 9 7 7 8 7
5 10 5 9 10 10 11 13 12 12 12 12 11 11 12 10 11 12 11 12 13 13 13 13 14 15 17 17 16 14 15 16 17 17 15 16 14 16 15 11 9 8 8 8
9 7 5 4 7 5 7 10 14 11 12 12 12 12 10 11 10 12 12 12 12 13 13 13 14 15 16 17 17 16 15 16 17 17 13 14 13 14 13 12 12 12 16 16
Wind_Direction
182 190 211 205 204 193 187 201 209 210 233 202 237 259 250 256 248 249 249 252 249 254 263 266 240 219 209 208 199 202 202 210 193 196 197 212 218 215 215 212 211 201 206 206
167 217 214 147 196 202 201 212 215 258 210 168 265 265 254 239 255 231 237 238 249 269 277 280 255 226 209 207 206 204 209 201 206 207 206 203 206 225 223 218 213 208 210 208
196 227 158 176 193 198 219 218 184 174 198 250 325 283 261 236 241 258 222 222 228 231 254 266 264 242 213 218 211 207 207 204 202 210 200 172 147 182 214 219 215 216 211 210
222 225 186 185 201 194 217 214 161 186 156 240 152 266 240 200 246 242 239 241 245 252 254 256 261 264 229 220 219 215 212 206 205 199 196 204 208 207 221 230 229 219 218 216
208 169 201 197 207 181 223 168 192 174 193 94 242 270 271 184 251 253 265 256 249 253 253 258 249 245 250 232 217 211 211 206 205 200 203 207 219 226 218 210 219 218 215 217
214 174 182 203 194 194 137 83 131 142 183 235 237 176 267 236 247 248 229 238 242 249 256 258 275 267 256 242 224 217 211 206 201 201 206 206 214 221 219 217 214 216 216 213
217 226 257 166 143 179 171 139 197 213 215 237 151 175 244 242 245 251 267 250 242 244 274 288 276 281 271 265 243 229 217 216 209 206 208 213 215 216 219 219 215 217 211 210
193 203 216 180 200 179 196 201 189 196 201 233 157 223 238 234 245 250 240 258 264 257 248 257 260 265 283 281 291 236 225 229 225 221 218 216 221 223 223 222 219 215 219 226
200 219 204 187 145 166 195 207 200 97 101 80 210 279 292 250 268 299 261 247 254 207 193 192 50 270 338 9 346 324 290 257 238 226 228 226 226 228 227 227 226 226 223 227
206 194 196 193 141 214 179 155 176 205 190 227 241 264 234 283 245 344 125 171 203 99 115 20 21 358 347 353 338 346 330 282 272 258 242 239 231 228 232 233 231 229 228 222
195 140 232 157 202 179 169 202 196 167 171 186 193 247 204 230 213 162 148 136 36 40 16 8 356 346 339 336 339 329 339 327 300 278 272 261 252 242 237 234 234 231 229 224
195 168 167 199 209 204 196 209 198 200 222 213 130 254 224 211 138 144 131 94 21 37 26 22 15 0 354 343 336 327 324 329 319 299 280 277 275 261 252 246 241 232 230 224
185 200 147 101 35 324 211 205 204 194 85 195 193 248 152 134 134 106 116 99 88 55 17 12 22 6 351 344 338 334 330 323 320 320 316 299 280 275 263 252 246 238 230 226
179 163 216 208 206 180 197 209 201 201 207 221 211 229 264 212 148 163 151 139 81 66 64 68 47 21 349 344 347 340 340 331 323 326 318 302 291 275 267 269 262 248 233 227
203 205 197 235 259 181 199 201 200 202 218 212 231 229 223 258 176 171 160 168 163 140 99 74 40 6 354 356 354 341 0 337 332 327 321 303 293 280 277 271 264 262 242 230
195 212 198 207 297 169 194 202 197 207 221 222 223 254 168 187 129 154 149 132 96 62 46 24 11 9 359 348 347 342 350 339 321 339 323 312 305 300 290 288 281 267 262 250
186 185 180 206 155 93 244 205 194 207 212 208 216 235 104 187 189 152 147 138 103 73 38 30 15 0 350 347 344 336 331 336 321 341 322 314 316 308 298 292 290 276 259 255
187 192 182 159 163 215 229 175 180 201 213 211 232 227 182 177 107 89 73 106 73 45 30 17 5 351 345 336 338 327 321 313 323 327 322 319 319 310 306 294 287 284 271 247
182 152 154 162 201 336 309 156 162 168 217 208 227 185 145 127 100 64 43 51 50 36 20 9 358 343 332 340 337 328 323 326 323 328 327 323 319 309 308 302 288 280 274 256
189 192 152 167 166 178 197 177 62 100 242 354 248 185 149 154 161 130 33 43 28 18 8 3 352 347 347 343 334 331 329 329 328 329 320 315 311 307 303 301 294 287 274 264
181 180 191 141 111 283 0 325 307 147 192 28 31 37 37 93 49 56 34 28 21 11 6 359 355 351 343 336 340 337 329 327 323 318 315 317 318 318 312 304 299 292 285 273
153 134 179 108 106 235 353 321 171 68 61 44 37 28 39 38 33 20 18 11 7 2 356 356 349 342 338 341 345 334 328 327 320 320 318 318 319 319 312 304 303 296 283 271
124 18 133 23 103 68 42 67 45 58 70 40 34 25 22 24 13 8 358 2 358 353 346 349 340 332 339 346 343 329 325 325 322 324 322 321 318 314 309 305 306 303 287 273
79 16 91 134 71 75 60 57 52 47 52 36 30 22 26 14 9 2 355 351 347 347 343 340 334 333 331 340 335 326 320 318 328 319 319 320 318 317 315 303 295 292 288 272
349 324 41 91 110 110 66 44 27 38 34 28 18 16 19 9 4 355 347 345 339 334 336 334 331 329 326 329 326 324 319 324 322 317 313 317 316 314 311 301 286 282 268 263
357 11 22 72 36 354 66 42 23 24 17 15 4 3 8 9 356 352 338 334 329 327 327 327 327 323 321 321 317 318 323 325 321 315 311 315 311 313 309 305 302 266 259 266